Regional Weather Roundup
Issued by NWS Charleston, SC

Current Version | Previous Version | Graphics & Text | Print | Product List | Glossary On
Versions: 1 2 3 4 5 6 7 8 9 10 11 12 13 14 15 16 17 18 19 20 21 22 23 24 25 26 27 28 29 30 31 32 33 34 35 36 37 38 39 40 41 42 43 44 45 46 47 48 49 50
000
ASUS42 KCHS 261610
RWRCHS
REGIONAL WEATHER ROUNDUP
NATIONAL WEATHER SERVICE CHARLESTON SC
1100 AM EST MON JAN 26 2015

NOTE: "FAIR" INDICATES FEW OR NO CLOUDS BELOW 12,000 FEET WITH NO
SIGNIFICANT WEATHER AND/OR OBSTRUCTIONS TO VISIBILITY.

NOT ALL STATIONS ARE QUALITY CONTROLLED BY THE NATIONAL
WEATHER SERVICE. USE DATA WITH CAUTION...ESPECIALLY
DEWPOINT OBSERVATIONS.

SCZ027-030-031-034>040-042>050-261700-
...SOUTHEAST SOUTH CAROLINA...

CITY           SKY/WX    TMP DP  RH WIND       PRES   REMARKS
N CHARLESTON   MOSUNNY   54  41  61 NW13G23   29.69F
WATERFRONT PRK   N/A     54 N/A N/A W12G20      N/A
MOUNT PLEASANT FAIR     N/A N/A N/A NW12G18   29.69S
PINOPOLIS      NOT AVBL
MONCKS CORNER  FAIR      55  43  62 W6        29.68F
SUMMERVILLE    FAIR      54  43  66 W10G16    29.70F
BEAUFORT MCAS  PTSUNNY   55  41  59 W21G28    29.72F
BEAUFORT ARPT  FAIR      55  45  67 W16       29.72F
HILTON HEAD IS MOSUNNY   54  43  66 W14G23    29.74F
WALTERBORO     MOSUNNY   54  37  54 W12       29.71F
ALLENDALE      FAIR      54  41  62 NW12G22   29.71F

...SOUTHERN MIDLANDS AND PEE DEE...

CITY           SKY/WX    TMP DP  RH WIND       PRES   REMARKS
GEORGETOWN     NOT AVBL
KINGSTREE      NOT AVBL
ORANGEBURG     SUNNY     53  39  59 W15       29.68F
BARNWELL       FAIR      54  41  62 W13       29.72S
AIKEN          FAIR      52  41  66 W16G23    29.73R
MANNING        NOT AVBL
COLUMBIA       MOSUNNY   55  40  56 W20       29.67S
SUMTER         SUNNY     53  40  61 W9G18     29.64F
FLORENCE       SUNNY     54  41  61 W10       29.65F
MYRTLE BEACH   MOSUNNY   54  41  62 W9        29.68F
N MYRTLE BEACH MOSUNNY   55  42  61 W9        29.64F

$$

GAZ063-065-086>088-099>101-113>116-118-119-134>141-150-261700-
...SOUTHEAST GEORGIA...

CITY           SKY/WX    TMP DP  RH WIND       PRES   REMARKS
SAVANNAH ARPT  PTSUNNY   54  38  54 W21G29    29.76S
HUNTER AAF     MOSUNNY   55  40  57 W15G24    29.74S
FORT STEWART   MOSUNNY   55  39  56 W22       29.77F
STATESBORO     PTSUNNY   53  41  65 NW15G28   29.77S
SYLVANIA       MOSUNNY   52  43  70 NW21G26   29.76S
CLAXTON        FAIR      54  43  66 W23G29    29.79R

...CSRA...CENTRAL AND FAR SOUTHEAST GEORGIA...

CITY           SKY/WX    TMP DP  RH WIND       PRES   REMARKS
THOMSON        PTSUNNY   54  43  68 NW16G24   29.79R
AUGUSTA-BUSH   MOSUNNY   54  38  54 NW21G26   29.72R
AUGUSTA-DANIEL MOSUNNY   54  40  59 NW12G24   29.73R
SWAINSBORO     CLOUDY    52  34  50 W14G25    29.80R
VIDALIA        CLOUDY    52  43  71 NW14G25   29.81R
EASTMAN        CLOUDY    50  43  75 NW9G20    29.88R
HAZLEHURST     PTSUNNY   53  43  68 W12G21    29.84R
ALMA           PTSUNNY   53  40  61 W15G25    29.84R
WAYCROSS       PTSUNNY   56  44  62 NW12G18   29.84F
JESUP          PTSUNNY   55  45  67 NW17      29.82S
BAXLEY         CLOUDY    54  41  62 W13G21    29.83R
BRUNSWICK      PTSUNNY   57  41  54 W20G31    29.81S
SAINT SIMONS   MOSUNNY   55  39  54 W16G29    29.80F

$$

SCZ027-028-034-036>038-045-046-048>050-GAZ119-141-261700-
...LAKE AND SUPPLEMENTAL COASTAL OBSERVATIONS...

STATION/POSITION TIME  TEMP    WIND        PRES    WAVE   SWELL
                       AIR SEA DIR/SP/G            HT/PER HT/PER/DIR
                 (UTC) (F)     (DEG/KT/KT) (MB)    (FT/S) (FT/S/D)
UPR LAKE MARION  NOT AVBL
WINYAH BAY       1500   52     270/  8     1004.0S
LAKE MURRAY      1500   50     270/ 11/ 15 1004.4R
ACE BASIN NERRS  1500   51     300/  5     1006.0S
FORT PULASKI     1600   52 53  290/ 22/ 25 1007.8S
SAPELO ISLAND    1500   53     290/ 15     1009.0R

$$

ANZ835-935-AMZ111-154-330-350-352-354-370-450-454-472-261700-
...C-MAN AND BUOY OBSERVATIONS...

STATION/POSITION TIME  TEMP    WIND        PRES    WAVE   SWELL
                       AIR SEA DIR/SP/G            HT/PER HT/PER/DIR
                 (UTC) (F)     (DEG/KT/KT) (MB)    (FT/S) (FT/S/D)
BUOY 41004       1600   55 69  270/ 19/ 23 1005.0R   6/ 7
BUOY 41008       1600   52 55  300/ 19/ 23 1007.8R   4/ 4
FOLLY BEACH CMAN 1500   53     270/  8/ 12 1006.1S
CAPERS NEARSHORE NOT AVBL
FRIPP NEARSHORE  1500   52     310/ 17/ 21   N/A


STATION/POSITION TIME  TEMP    WIND        PRES    WAVE   SWELL
                       AIR SEA DIR/SP/G            HT/PER HT/PER/DIR
                 (UTC) (F)     (DEG/KT/KT) (MB)    (FT/S) (FT/S/D)
5E ST. MARYS GA  1600      58                N/A     3/ 4
FRYING PAN BUOY  1600   55 67  280/ 17/ 21 1004.5R   6/ 8   3/190/ 8
BUOY 41025       1600   58 71  330/ 10/ 12 1003.4F   3/ 8   3/ 60/ 8
CAPE LOOKOUT NC  1500   50      CALM  /  1 1004.0F
BUOY 41002       1547   66 73  240/ 29/ 39 1003.4F   8/ 6   2/ 60/ 9
BUOY 41010       1600   69 75  260/ 31/ 39 1007.1F   8/ 6   2/270/11
ST AUGUSTINE FL  1600   57     300/ 13/ 19 1010.9F


$$



USA.gov is the U.S. government's official web portal to all federal, state and local government web resources and services.